{"data":{"norad_id":65892,"epoch":"2026-09-19T12:31:47.978112Z","epoch_age_seconds":190550,"freshness":"STALE","line1":"1 65892U 25224L   26262.52208308  .00008939  00000+0  27537-3 0  9996","line2":"2 65892  53.1595 186.5734 0001218  91.7377 268.3765 15.34400705 54544","mean_motion":15.34400705,"eccentricity":0.0001218,"inclination_deg":53.1595,"raan_deg":186.5734,"arg_perigee_deg":91.7377,"mean_anomaly_deg":268.3765,"bstar":0.00027537,"rev_number":5454,"period_min":93.847714961784,"perigee_km":461.8679307133,"apogee_km":463.53435888537,"semimajor_km":6840.8381447993,"source":"CELESTRAK","updated_at":"2026-09-21T09:00:35.758300Z"}}